EW6942 Weather Reports


Display with metric or nautical units.
time (UTC)temp
F
wind
direction
speed
MPH
gust
MPH
rain 1hr
in
rain 24hr
in
rain mn
in
humidity
%
barometer
mb
20260505124503 63 74 2.0 4.0 0.00 0.00 0.00 73 1017.3
20260505123101 62 104 1.0 3.0 0.00 0.00 0.00 75 1017.1
20260505121557 60 98 0.0 2.0 0.00 0.00 0.00 76 1017.1
20260505120105 59 88 0.0 2.0 0.00 0.00 0.00 77 1017.1
20260505114555 57 141 0.0 0.0 0.00 0.00 0.00 80 1017.1
20260505113112 54 141 0.0 0.0 0.00 0.00 0.00 83 1017.0
20260505111552 52 141 0.0 0.0 0.00 0.00 0.00 85 1016.8
20260505101546 50 142 0.0 0.0 0.00 0.00 0.00 87 1016.2
20260505100046 50 174 0.0 0.0 0.00 0.00 0.00 86 1016.2
20260505094544 50 175 0.0 0.0 0.00 0.00 0.00 86 1016.1
20260505093048 50 111 0.0 0.0 0.00 0.00 0.00 86 1016.1
20260505091541 50 110 0.0 0.0 0.00 0.00 0.00 85 1015.8
20260505090039 51 110 0.0 0.0 0.00 0.00 0.00 84 1015.8
20260505084545 51 110 0.0 0.0 0.00 0.00 0.00 84 1015.6
20260505083042 52 110 0.0 0.0 0.00 0.00 0.00 84 1015.5
20260505081533 52 110 0.0 0.0 0.00 0.00 0.00 82 1015.4
20260505080030 53 110 0.0 0.0 0.00 0.00 0.00 81 1015.3
20260505074528 54 110 0.0 0.0 0.00 0.00 0.00 79 1015.3
20260505073027 54 110 0.0 1.0 0.00 0.00 0.00 78 1015.3
20260505071524 55 77 0.0 0.0 0.00 0.00 0.00 77 1015.2
20260505070023 55 80 0.0 2.0 0.00 0.00 0.00 75 1015.4
20260505064521 56 104 0.0 2.0 0.00 0.00 0.00 74 1015.4
20260505063025 56 58 0.0 3.0 0.00 0.00 0.00 74 1015.5
20260505061520 56 111 0.0 1.0 0.00 0.00 0.00 75 1015.7
20260505060013 56 102 0.0 0.0 0.00 0.00 0.00 74 1015.7
20260505054511 56 102 0.0 1.0 0.00 0.00 0.00 73 1015.8
20260505053008 57 103 0.0 1.0 0.00 0.00 0.00 72 1016.0
20260505051510 58 99 0.0 0.0 0.00 0.00 0.00 71 1016.2
20260505041558 60 101 1.0 2.0 0.00 0.00 0.00 68 1016.2
20260505040054 61 86 0.0 2.0 0.00 0.00 0.00 67 1016.1
20260505034614 62 96 1.0 3.0 0.00 0.00 0.00 65 1016.3
20260505033056 63 103 1.0 4.0 0.00 0.00 0.00 64 1016.3
20260505031555 63 92 1.0 5.0 0.00 0.00 0.00 63 1016.3
20260505030053 64 97 2.0 6.0 0.00 0.00 0.00 62 1016.3
20260505024551 64 82 2.0 5.0 0.00 0.00 0.00 62 1016.2
20260505023050 65 117 1.0 5.0 0.00 0.00 0.00 61 1016.2
20260505021551 65 65 1.0 7.0 0.00 0.00 0.00 60 1016.1
20260505020049 66 72 4.0 13.0 0.00 0.00 0.00 59 1016.0
20260505014549 66 103 2.0 8.0 0.00 0.00 0.00 60 1015.9
20260505013049 67 97 2.0 4.0 0.00 0.00 0.00 59 1015.8
20260505011606 68 75 4.0 8.0 0.00 0.00 0.00 56 1015.5
20260505010049 69 95 3.0 10.0 0.00 0.00 0.00 55 1015.3
20260505004546 69 77 4.0 10.0 0.00 0.00 0.00 54 1015.1
20260505003047 70 125 4.0 9.0 0.00 0.00 0.00 53 1014.8
20260505001551 70 73 5.0 8.0 0.00 0.00 0.00 49 1014.7
20260505000058 72 97 0.0 2.0 0.00 0.00 0.00 47 1014.4
20260504234543 73 129 0.0 3.0 0.00 0.00 0.00 43 1014.3
20260504233057 74 65 2.0 7.0 0.00 0.00 0.00 41 1014.3
20260504231541 75 124 3.0 7.0 0.00 0.00 0.00 40 1014.3
20260504230040 75 129 2.0 7.0 0.00 0.00 0.00 37 1014.2
20260504224542 76 55 4.0 8.0 0.00 0.00 0.00 36 1014.1
20260504223038 76 108 2.0 11.0 0.00 0.00 0.00 36 1014.2
20260504221537 76 124 5.0 11.0 0.00 0.00 0.00 35 1014.1
20260504220037 76 84 4.0 12.0 0.00 0.00 0.00 36 1014.2
20260504214535 77 80 6.0 13.0 0.00 0.00 0.00 35 1014.1
20260504213037 77 96 5.0 10.0 0.00 0.00 0.00 35 1014.0
20260504211532 77 152 3.0 11.0 0.00 0.00 0.00 35 1014.0
20260504210032 77 96 4.0 14.0 0.00 0.00 0.00 33 1014.1
20260504204529 77 98 6.0 11.0 0.00 0.00 0.00 32 1014.2
20260504203028 78 75 4.0 8.0 0.00 0.00 0.00 34 1014.4
20260504201526 77 141 4.0 13.0 0.00 0.00 0.00 35 1014.6
20260504200023 77 89 5.0 9.0 0.00 0.00 0.00 35 1014.7
20260504194527 77 101 5.0 10.0 0.00 0.00 0.00 35 1014.9
20260504193018 76 150 5.0 10.0 0.00 0.00 0.00 35 1015.0
20260504191519 76 64 7.0 11.0 0.00 0.00 0.00 35 1015.2
20260504190018 76 39 6.0 12.0 0.00 0.00 0.00 37 1015.3
20260504184512 76 188 3.0 10.0 0.00 0.00 0.00 38 1015.5
20260504183011 76 79 4.0 11.0 0.00 0.00 0.00 38 1015.8
20260504181508 75 61 4.0 11.0 0.00 0.00 0.00 37 1016.0
20260504180007 75 84 3.0 11.0 0.00 0.00 0.00 37 1016.0
20260504174509 75 76 4.0 11.0 0.00 0.00 0.00 38 1016.0
20260504173005 75 176 2.0 7.0 0.00 0.00 0.00 39 1016.1
20260504171501 75 133 4.0 9.0 0.00 0.00 0.00 40 1016.3